Weather in Ludhiana

India     30°54′11″N   75°51′04″E
temp.,
°C
wind,
m/s
gust,
m/s
humid.,
%
clouds,
%
prec.,
mm/h
press.,
hPa
HPBL,
m
8 may, sat
sat823:30+26sse125144 1.3 100835
02:30+25ese235414 0.0 100879
05:30+23ese23575 0.0 100858
08:30+29se22381 0.0 1010526
11:30+36nnw02220 0.0 10091917
14:30+37nw341999 0.0 10063909
17:30+36nw45218 0.0 10042357
20:30+31wnw593095 0.0 1005362
9 may, sun
sun923:30+29wsw233693 0.0 100653
02:30+28n123881 0.0 100413
05:30+26nne334250 0.0 100559
08:30+32se33285 0.0 1007636
11:30+38se231824 0.0 10063085
14:30+24w141760100 2.1 1005556
17:30+24nne131762100 13.0 1006594
20:30+26nnw4852100 1.4 1006217
10 may, mon
mon1023:30+26wsw2251100 1.5 100436
02:30+25ne2250100 0.0 100217
05:30+24nnw115590 0.0 100411
08:30+29nne333771 0.3 1005316
11:30+35nne112315 0.3 10041144
14:30+38w231978 0.0 10012186
17:30+38nne24170 0.0 9982793
20:30+34ene332365 0.0 99933
11 may, tue
tue1123:30+31wnw1229100 0.0 100025
02:30+28ese363547 0.1 1000111
05:30+27e2239100 0.1 100136
08:30+32ese33295 0.0 1002419
11:30+38ssw221838 0.0 10011600
14:30+41wsw14141 0.0 9983593
17:30+41ne34135 0.0 9954259
20:30+34ene61023100 0.0 997294
12 may, wed
wed1223:30+32nnw222991 0.3 99941
02:30+29wsw1139100 0.9 99921
05:30+27sse374497 0.9 1000195
08:30+30sse4635100 0.0 1001624
11:30+32sw2331100 0.0 10021579
14:30+26nw4550100 0.8 1003637
17:30+24nne6863100 0.9 1002528
20:30+24e41061100 0.0 1002525